User: anonymous   Login
Location: Unspecified
(0.0000°N, 0.0000°E)
Time: 05:40:00
(UTC+02:00)
Language:

Cosmos 1125 Rocket - Orbit

View from above orbital plane
View from above orbital plane
View from above satellite
View from above satellite

Ground track
Ground track

The orbit data is extracted from the following two-line orbital elements,

1 11511U 79078B   16121.81499080  .00000068  00000-0  31979-4 0  9997
2 11511  74.0377 353.2049 0015989 334.7099  25.3269 14.36708536919393
Epoch (UTC): 30 April 2016 19:33:35
Eccentricity: 0.0015989
inclination: 74.0377°
perigee height: 758 km
apogee height: 781 km
right ascension of ascending node: 353.2049°
argument of perigee: 334.7099°
revolutions per day: 14.36708536
mean anomaly at epoch: 25.3269°
orbit number at epoch: 91939

The dashed part of the orbit path shows where the satellite is in the earth's shadow,  

DLR